This is the latest recevied weather packets stored in our database for station/object WE1C. If no packets are shown the sender has not sent any weather packets the latest 1 day(s).
| Time | Temp. | Humidity | Pressure | Rain* | Wind** | Luminosity | Snow |
|---|---|---|---|---|---|---|---|
| 1778015152 | 25° C | 39% | 1035.5 hPa | 0 mm | 2.24 m/s, 280° | 117 W/m² | - |
| 1778014849 | 25.56° C | 39% | 1035.6 hPa | 0 mm | 0.45 m/s, 199° | 121 W/m² | - |
| 1778014547 | 26.11° C | 38% | 1035.7 hPa | 0 mm | 1.79 m/s, 16° | 137 W/m² | - |
| 1778014244 | 26.11° C | 36% | 1035.4 hPa | 0 mm | 0.89 m/s, 200° | 123 W/m² | - |
| 1778013942 | 26.67° C | 35% | 1035.3 hPa | 0 mm | 2.24 m/s, 215° | 247 W/m² | - |
| 1778013638 | 26.11° C | 35% | 1035.4 hPa | 0 mm | 0.89 m/s, 176° | 228 W/m² | - |
| 1778013335 | 26.67° C | 35% | 1035.6 hPa | 0 mm | 1.79 m/s, 66° | 178 W/m² | - |
| 1778013032 | 26.67° C | 36% | 1035.7 hPa | 0 mm | 1.34 m/s, 197° | 226 W/m² | - |
| 1778012728 | 26.67° C | 35% | 1035.2 hPa | 0 mm | 0.89 m/s, 302° | 289 W/m² | - |
| 1778012424 | 26.67° C | 34% | 1035.6 hPa | 0 mm | 2.24 m/s, 236° | 267 W/m² | - |
| 1778012122 | 26.67° C | 33% | 1035.6 hPa | 0 mm | 3.13 m/s, 236° | 263 W/m² | - |
| 1778011819 | 26.67° C | 34% | 1035.4 hPa | 0 mm | 1.34 m/s, 195° | 542 W/m² | - |
| 1778011517 | 26.67° C | 33% | 1035.8 hPa | 0 mm | 2.24 m/s, 221° | 558 W/m² | - |
| 1778011213 | 27.22° C | 33% | 1035.6 hPa | 0 mm | 1.34 m/s, 204° | 563 W/m² | - |
| 1778010909 | 26.67° C | 34% | 1035.7 hPa | 0 mm | 1.79 m/s, 172° | 491 W/m² | - |
| 1778010607 | 27.22° C | 33% | 1035.6 hPa | 0 mm | 1.34 m/s, 206° | 169 W/m² | - |
| 1778010299 | 26.67° C | 36% | 1035.7 hPa | 0 mm | 1.79 m/s, 169° | 623 W/m² | - |
| 1778010001 | 26.67° C | 35% | 1035.6 hPa | 0 mm | 1.79 m/s, 218° | 174 W/m² | - |
| 1778009696 | 27.22° C | 35% | 1035.9 hPa | 0 mm | 2.24 m/s, 194° | 115 W/m² | - |
| 1778009393 | 27.78° C | 34% | 1035.7 hPa | 0 mm | 1.34 m/s, 72° | 683 W/m² | - |
| 1778009091 | 27.22° C | 34% | 1035.6 hPa | 0 mm | 2.24 m/s, 152° | 679 W/m² | - |
| 1778008789 | 27.78° C | 33% | 1035.7 hPa | 0 mm | 0.89 m/s, 158° | 695 W/m² | - |
| 1778008488 | 27.78° C | 33% | 1035.6 hPa | 0 mm | 1.34 m/s, 241° | 691 W/m² | - |
| 1778008184 | 27.78° C | 32% | 1035.8 hPa | 0 mm | 1.79 m/s, 118° | 710 W/m² | - |
| 1778007879 | 27.22° C | 33% | 1036 hPa | 0 mm | 2.24 m/s, 262° | 710 W/m² | - |
* Rain latest hour (hover to see other rain measurements)
** Current wind speed in m/s (hover to see current wind gust speed)